Αρχική σελίδα
METAR-TAF:

METAR-TAF

Αεροδρόμια :

Wrigley, Βορειοδυτικά Εδάφη, Καναδάς

γεωγραφικό πλάτος: 63-13N, γεωγραφικό μήκος: 123-26W, υψόμετρο: 150 μ

Παρών καιρός

Η αναφορά έγινε 42 λεπτά πριν, στις 18:00 UTC
Ήπιος άνεμος
Θερμοκρασία -32°C
Υγρασία 67%
Πίεση 1007 hPa
Ορατότητα: 24.1 χλμ
Λίγα νέφη σε ύψος 11000 πόδια
Λίγα νέφη σε ύψος 16000 πόδια
Λίγα νέφη σε ύψος 22000 πόδια

METAR: CYWY 201800Z 00000KT 15SM FEW110 FEW160 FEW220 M32/M36 A2974 RMK AS1AC1CI1 CI TR SLP098

Χρόνος: 11:42 (18:42 UTC)


TAF: λείπει

Μετεωρολογικές αναφορές και προγνώσεις για περισσότερα από 4000 αεροδρόμια (δελτία METAR και TAF).

Οι διαθέσιμοι σταθμοί απεικονίζονται στο χάρτη με κίτρινες και κόκκινες κουκκίδες.

Μετακινήστε το ποντίκι πάνω από τις κουκκίδες για να δείτε το όνομα του σταθμού.

Στη συνέχεια, κάντε κλικ για να δείτε τις μετεωρολογικές αναφορές και τις προγνώσεις καιρού.

Για να αλλάξετε το χάρτη: κάντε κλικ στα πράσινα κουμπιά με τον μαύρο σταυρό για να ζουμάρετε, στο πράσινο κουμπί με την παύλα για να αφαιρέσετε το ζουμ ή στα πράσινα βέλη για να αντιπαραβάλλετε χάρτες.


METAR-TAF: